Location: Unspecified
(41.1850°N, 73.2650°W)
Time: 14:27:53
(UTC+00:00)

ARIANE 6 FM1 Upper Stage - Pass Details

Date: 20 February 2026
Orbit: 523 x 607 km, 62.0° (Epoch: 6 March)

Event Time Altitude Azimuth Distance (km) Brightness Sun altitude
Rises 00:04:31 0° 316° (NW) 2,656 6.8 -18.0°
Reaches altitude 10° 00:06:47 10° 309° (NW) 1,766 5.9 -18.5°
Maximum altitude 00:10:30 40° 239° (WSW) 790 3.8 -19.2°
Drops below altitude 10° 00:14:14 10° 169° (S) 1,778 5.1 -19.9°
Enters shadow 00:14:18 10° 169° (S) 1,799 5.1 -19.9°
